GRUS-1B

Last updated on Thu Apr 22 2021 00:02:03 GMT+0000 (Coordinated Universal Time)

1 47934U 21022C 21111.43007202 -.00004102 00000-0 -40226-3 0 9994 2 47934 97.7284 14.9588 0021106 135.9577 224.3390 14.91561223 4492
UTC large
Height (km)
Speed (km/s)
/
Latitude / Longitude
Inclination (degrees)
Orbital Period (minutes)
Azimuth
Elevation
Range (km)
Doppler Factor

Next 0 passes for location: London (51.5072 / 0.1276)

Sorry there are no passes over London.